Location: Dugenta
(41.1333°N, 14.4500°E)
Time: 10:53:44
(UTC+00:00)

CSL-04 Debris - Pass Details

Date: 03 March 2021
Orbit: 826 x 848 km, 98.9° (Epoch: 20 April)

Event Time Altitude Azimuth Distance (km) Brightness Sun altitude
Rises 18:21:05 0° 171° (S) 3,365 7.2 -16.9°
Reaches altitude 10° 18:23:26 10° 173° (S) 2,439 6.5 -17.3°
Maximum altitude 18:28:50 70° 257° (WSW) 891 4.5 -18.3°
Drops below altitude 10° 18:34:18 10° 342° (NNW) 2,470 7.0 -19.4°
Sets 18:36:41 0° 344° (NNW) 3,412 7.7 -19.8°
